{"data":{"norad_id":43339,"intl_designator":"2018-036A","name":"USA 283","alt_names":[],"object_type":"PAYLOAD","status":"ACTIVE","operator":null,"country":"US","launch_date":"2018-04-14","launch_site_code":"AFETR","launch_vehicle":null,"mission":null,"orbit_class":"UNKNOWN","rcs_meters":null,"size_class":null,"mass_kg":null,"dimensions":null,"purposes":["comms"],"wikipedia_slug":null,"has_3d_model":false,"image_url":null,"decayed_at":null,"tle_current":{"epoch":"2026-09-17T12:34:41.602368Z","epoch_age_seconds":282951,"freshness":"STALE","line1":"1 43339U 18036A   26260.52409262  .00000000  00000+0  00000+0 0  9994","line2":"2 43339   0.0127 153.0002 0000046  98.6954  67.5107  1.00270637 26219","mean_motion":1.00270637,"eccentricity":4.6e-6,"inclination_deg":0.0127,"raan_deg":153.0002,"arg_perigee_deg":98.6954,"mean_anomaly_deg":67.5107,"bstar":0,"rev_number":2621,"period_min":1436.113345924,"perigee_km":35786.722831087,"apogee_km":35787.110749582,"semimajor_km":42165.053790335,"source":"CELESTRAK","updated_at":"2026-09-20T09:00:35.259908Z"}}}